EHI
11 12 12 15 17 17 17 18 19 19 20 22 22 20 16 12 9 6 5 4 4 3 3 4 4 5 6 5 4 3 2 1 0 0 0 0 0 0 0 0 0 0 0
11 10 11 15 17 18 19 20 20 20 20 20 21 20 17 13 9 6 5 4 3 2 3 4 5 5 5 5 4 3 1 0 0 0 0 0 0 0 0 0 0 0 0
9 9 11 15 18 19 20 20 20 20 19 17 17 18 16 11 7 4 3 2 1 2 3 4 5 5 5 4 3 2 1 0 0 0 0 0 0 0 0 0 0 0 0
7 8 11 14 15 16 18 19 19 19 17 14 12 12 11 8 4 3 2 1 0 1 3 5 6 6 6 5 5 2 1 0 0 0 0 0 0 0 0 0 0 0 0
7 7 9 11 12 12 15 17 17 16 14 12 9 8 8 6 4 2 1 0 0 0 2 4 6 7 7 7 7 4 1 0 0 0 1 1 1 0 0 0 0 0 0
8 7 7 8 9 11 13 15 15 12 9 8 5 5 6 6 3 2 1 0 0 0 1 2 5 7 8 8 8 6 3 1 1 1 1 2 2 1 0 0 0 0 0
8 7 6 7 8 9 10 12 11 7 4 3 2 3 4 4 2 1 0 0 0 0 1 2 4 6 7 7 7 6 5 3 2 1 2 3 2 1 0 0 0 0 0
9 7 5 5 6 7 8 8 6 4 2 1 1 2 3 2 1 0 0 0 0 0 1 1 3 5 6 6 6 5 5 4 4 3 3 3 3 1 0 0 0 0 0
8 6 4 4 4 5 6 5 4 3 2 2 3 3 3 2 1 0 0 0 0 0 0 0 2 4 6 6 6 5 4 4 5 5 5 4 3 2 1 0 0 0 0
6 4 3 2 3 3 3 3 2 1 1 2 3 4 3 1 0 0 0 0 0 0 0 0 0 2 5 6 6 5 4 3 4 4 5 4 3 3 2 1 0 0 0
4 3 1 1 1 1 1 1 0 0 0 1 2 3 1 0 0 0 0 0 0 0 1 1 0 1 4 6 6 4 3 3 3 3 4 3 3 3 3 2 1 1 0
3 2 1 0 0 0 0 0 0 0 0 0 2 2 1 0 0 0 0 0 1 1 2 1 0 0 2 5 5 4 3 3 3 3 3 3 3 3 3 3 3 2 1
2 1 0 0 0 0 0 0 0 0 0 0 1 1 1 0 0 0 1 1 1 2 2 1 0 0 1 3 4 3 3 3 3 3 3 3 3 3 3 3 3 3 3
1 0 0 0 0 0 0 0 0 0 0 0 0 0 0 0 0 0 1 1 1 1 1 0 0 0 0 2 3 3 3 3 3 3 3 3 3 3 3 3 3 3 3
1 1 0 0 0 0 0 0 0 0 0 0 0 1 1 0 0 0 1 1 0 0 0 0 0 0 0 1 2 3 3 3 3 3 3 2 2 2 2 2 2 2 2
2 2 1 0 0 0 0 0 1 1 1 1 1 1 1 0 0 0 0 0 0 0 0 0 0 0 0 1 1 2 2 2 2 2 1 1 1 1 1 1 1 1 1
3 3 2 1 0 0 0 0 1 1 1 0 0 1 1 0 0 0 0 0 0 0 0 0 0 0 0 0 0 1 1 1 1 1 0 0 0 0 0 0 0 0 0
3 3 2 1 0 0 0 0 1 1 0 0 0 0 0 0 0 0 0 0 0 0 0 0 0 0 0 0 0 0 0 0 0 0 0 0 0 0 0 0 0 0 0
2 2 1 0 0 0 0 0 0 0 0 0 0 0 1 1 1 1 0 0 0 0 0 0 0 0 0 0 0 0 0 0 0 0 0 0 0 0 0 0 0 0 0
1 1 0 0 0 0 0 0 0 0 0 0 0 0 1 2 2 1 0 0 0 0 0 0 0 0 0 0 0 0 0 0 0 0 0 0 0 0 0 0 0 0 0
0 0 0 0 0 0 0 0 0 0 0 0 0 0 1 2 1 1 0 0 0 0 0 0 0 0 0 0 0 0 0 0 0 0 0 0 0 0 0 0 0 0 0
0 0 0 0 0 0 0 0 0 0 0 0 0 0 0 0 0 0 0 0 0 0 0 0 0 0 0 0 0 0 0 0 0 0 0 0 0 0 0 0 0 0 0
0 0 0 0 0 0 0 0 0 0 0 0 0 0 0 0 0 0 0 0 0 0 0 0 0 0 0 0 0 0 0 0 0 0 0 0 0 0 0 0 0 0 0
0 0 0 0 0 0 0 0 0 0 0 0 0 0 0 0 0 0 0 0 0 0 0 0 0 0 0 0 0 0 0 0 0 0 0 0 0 0 0 0 0 0 0
0 0 0 0 0 0 0 0 0 0 0 0 0 0 0 0 0 0 0 0 0 0 0 0 0 0 0 0 0 0 0 0 0 0 0 0 0 0 0 0 0 0 0
0 0 0 0 0 0 0 0 0 0 0 0 0 0 0 0 0 0 0 0 0 0 0 0 0 0 0 0 0 0 0 0 0 0 0 0 0 0 0 0 0 0 0
Wind_Speed
2 1 1 2 2 2 2 2 2 2 2 1 1 1 2 2 1 2 2 2 2 2 2 1 1 1 2 2 2 2 1 1 1 1 1 2 2 2 3 3 3 4 4
3 2 1 2 1 2 2 2 3 2 2 1 1 2 2 2 2 1 1 2 2 3 3 3 3 2 2 2 2 2 1 1 1 2 1 2 3 2 2 2 3 4 3
2 2 1 0 0 1 2 2 3 3 2 2 1 1 1 1 0 0 1 2 2 2 2 3 3 2 2 2 2 2 2 1 1 2 3 2 3 2 2 2 3 3 3
3 2 2 1 0 2 2 1 2 2 2 1 1 2 2 1 2 1 1 1 2 2 3 3 3 2 2 2 2 2 2 2 1 1 1 3 3 2 2 3 2 3 3
3 3 2 1 1 1 1 1 1 1 1 1 2 2 1 1 1 1 1 1 1 2 2 3 3 3 3 3 3 2 2 2 2 2 1 1 1 1 2 2 3 3 3
3 3 2 2 2 1 1 1 1 0 1 1 1 1 2 1 1 1 1 1 1 1 2 2 2 3 2 3 3 3 3 2 3 2 2 2 1 2 2 3 3 3 3
2 3 3 3 3 2 1 1 1 1 1 1 1 1 2 2 2 2 2 1 1 1 2 2 2 2 2 3 3 3 3 3 3 3 2 2 2 2 2 2 2 3 3
2 2 3 3 2 2 1 1 0 0 1 1 1 1 1 1 1 1 2 2 2 3 3 2 3 3 3 3 3 2 3 2 3 3 2 2 2 2 2 3 2 2 2
2 2 2 2 2 1 1 1 0 0 1 1 1 1 1 1 2 2 2 2 2 2 2 2 3 3 3 3 3 2 2 2 2 2 3 2 2 2 2 2 3 3 2
3 3 2 2 2 1 1 1 1 0 0 0 1 1 1 2 2 2 2 2 2 2 2 2 2 2 2 2 2 2 2 2 2 2 3 3 3 2 2 2 2 3 4
2 2 2 2 2 2 2 2 2 1 1 1 1 1 1 1 1 1 2 2 2 1 2 2 1 1 1 2 2 2 2 2 2 2 3 3 3 2 2 1 1 2 2
1 1 2 2 2 3 3 2 2 2 1 1 0 1 1 1 0 1 2 1 1 1 1 1 1 1 1 1 2 3 3 3 3 3 2 3 2 2 2 2 2 2 2
2 3 3 3 2 2 2 2 2 2 2 1 1 1 1 1 1 1 1 1 0 1 0 1 1 1 2 2 2 3 3 3 3 3 3 3 2 3 2 2 2 2 2
1 2 3 3 3 2 2 2 3 2 2 2 1 1 1 1 1 1 1 1 0 0 0 1 1 2 2 2 2 2 2 2 3 3 3 3 3 4 3 2 3 2 2
2 2 2 2 2 3 3 3 2 2 2 2 2 1 0 0 1 1 1 1 1 0 0 0 1 1 1 2 2 2 2 3 2 3 3 3 3 4 3 2 3 3 2
2 1 1 2 2 3 3 3 2 2 1 1 1 1 1 1 1 1 1 1 2 1 1 0 0 0 0 1 1 1 2 2 2 3 3 3 3 3 3 3 4 4 3
1 2 2 2 2 3 2 2 2 1 1 1 1 1 1 1 1 1 2 1 1 1 1 1 1 1 2 2 1 2 1 2 2 2 2 2 2 2 2 2 3 4 5
1 2 2 2 2 2 2 2 2 1 1 0 1 0 0 0 1 1 2 1 1 1 1 1 1 1 2 2 2 2 0 0 1 2 3 3 2 2 2 2 2 3 2
1 2 2 2 2 2 2 2 2 1 1 1 1 1 1 0 0 1 1 1 1 2 2 2 1 1 2 3 2 1 1 0 1 2 2 2 2 3 2 1 2 3 3
1 1 1 1 1 2 2 1 1 1 2 2 2 2 1 1 1 2 1 1 0 1 1 2 2 1 2 4 3 1 1 0 2 2 2 3 3 3 2 2 2 2 3
2 2 1 1 2 2 1 1 2 2 3 3 2 1 1 2 2 1 1 1 0 1 2 2 3 2 3 3 3 1 1 1 1 2 2 3 3 2 2 2 2 4 3
3 2 1 2 3 2 1 2 3 4 3 2 1 1 2 2 1 1 1 1 0 1 2 2 3 3 3 2 3 2 2 1 1 2 2 3 3 2 2 1 2 2 1
3 2 2 3 3 3 2 3 5 4 2 1 2 2 2 1 1 1 1 1 1 1 1 2 2 3 3 3 4 3 3 2 1 2 3 4 3 2 1 2 2 1 0
3 2 2 3 4 4 3 4 4 3 2 2 2 2 2 2 1 1 1 1 1 1 2 2 2 3 2 3 3 2 2 2 2 2 3 4 3 2 2 2 2 1 1
3 3 3 3 5 4 3 4 3 1 1 2 2 2 1 1 2 2 2 2 3 4 4 3 2 2 2 4 3 1 1 1 1 1 2 2 2 2 2 2 2 2 1
3 3 3 4 4 4 4 4 3 2 1 2 2 2 2 1 1 1 2 4 4 4 5 5 4 3 4 4 3 3 2 2 1 2 1 1 1 2 2 2 2 1 1
Wind_Direction
312 20 76 85 96 97 112 128 129 135 138 147 165 178 210 214 202 197 188 186 181 170 166 183 178 171 184 209 212 201 205 231 162 91 324 310 271 249 240 240 228 220 216
12 16 24 71 106 168 164 150 151 147 151 178 192 189 191 211 209 205 193 189 183 182 176 192 196 185 181 193 211 187 176 243 155 142 108 336 327 303 259 240 224 228 220
37 358 12 215 152 191 189 183 184 171 166 166 133 98 90 86 100 169 205 213 196 193 191 191 192 186 180 196 209 193 171 199 244 160 157 168 230 278 292 258 243 238 234
28 4 41 23 238 236 221 202 191 164 155 146 140 160 161 186 210 208 212 228 214 204 192 193 188 183 184 192 206 188 172 169 203 248 205 193 183 183 279 304 285 264 249
18 16 30 337 311 274 238 194 151 134 146 166 185 180 181 199 181 139 151 250 248 228 219 202 187 193 195 195 196 188 179 180 185 197 208 221 213 186 186 264 293 300 272
14 10 11 30 356 329 282 113 93 147 176 185 184 172 163 163 148 163 201 251 256 249 236 211 198 203 203 201 199 192 186 188 188 195 188 179 180 210 198 228 258 272 274
354 355 11 20 357 353 8 75 124 244 246 181 180 188 173 164 170 196 207 216 250 257 244 223 210 207 206 206 198 184 188 192 186 198 206 206 208 197 191 206 247 261 277
347 358 5 22 12 347 358 1 95 239 244 192 210 202 178 169 180 197 200 210 227 236 239 227 215 212 208 207 191 182 192 188 195 207 206 212 223 203 193 190 199 263 283
351 357 2 21 16 354 332 293 282 273 235 213 202 218 194 177 197 213 209 230 240 238 229 225 225 220 206 195 182 188 203 192 201 213 215 220 232 225 221 205 188 187 234
354 355 2 357 345 349 353 15 52 81 300 252 242 237 228 211 216 219 233 244 252 245 223 230 226 224 207 192 181 193 206 199 219 217 219 230 237 242 233 220 216 196 197
340 348 357 356 356 2 5 22 25 30 17 350 271 274 267 239 230 239 244 252 262 242 236 236 209 201 208 205 185 206 198 201 224 231 224 240 237 236 242 229 221 215 190
338 356 -0 11 14 10 8 10 9 4 331 309 296 295 299 278 294 296 278 271 272 272 228 201 190 196 195 193 189 215 216 206 218 229 222 240 240 239 242 226 236 236 220
14 12 13 10 4 359 351 345 338 331 323 335 9 9 350 341 306 289 299 349 356 325 305 163 195 217 207 206 215 218 221 220 226 224 220 236 231 247 250 241 240 243 242
22 13 15 3 359 354 347 341 325 327 346 18 30 25 337 281 275 293 334 341 61 103 85 225 220 215 213 218 227 221 225 237 238 233 228 232 227 230 238 244 246 239 238
12 11 10 344 343 351 348 345 331 335 3 32 41 37 355 358 12 5 356 348 12 85 223 259 252 231 211 226 219 226 231 232 239 248 246 245 241 233 225 234 238 228 226
347 344 352 337 327 329 339 342 337 344 27 40 21 18 47 36 21 354 356 8 5 359 24 28 301 300 263 251 228 230 242 235 228 244 254 260 256 258 250 253 243 225 218
310 322 327 308 299 302 320 327 323 348 37 39 28 30 52 36 345 346 17 10 343 352 349 298 262 253 263 257 265 270 240 239 239 241 249 264 277 266 249 268 279 267 256
314 311 303 301 295 306 326 320 326 352 354 322 287 320 35 359 348 28 16 347 339 352 331 302 270 256 280 277 271 286 205 254 268 246 228 232 265 260 238 240 271 277 268
273 263 265 269 282 305 307 325 340 344 340 298 269 266 241 225 357 354 319 306 345 344 335 331 318 303 302 303 302 336 84 32 308 292 276 246 253 267 245 210 257 287 288
298 284 285 312 304 292 295 315 309 327 310 285 260 248 235 208 228 244 256 266 264 302 341 352 334 302 298 309 313 298 132 322 310 317 309 293 272 272 248 201 210 263 277
302 312 307 291 272 276 278 280 281 275 271 273 278 281 239 218 226 231 258 280 297 337 344 331 316 309 302 314 320 293 186 227 279 302 305 301 301 283 250 209 209 238 255
313 314 307 299 287 276 258 275 270 267 272 273 286 291 271 240 214 198 281 307 294 320 321 320 316 313 310 318 324 312 275 240 218 268 277 285 298 298 295 264 260 267 299
294 291 289 300 302 285 242 242 265 271 276 281 273 273 275 263 227 205 239 291 301 265 280 295 299 302 306 310 313 310 305 294 239 267 293 309 319 320 320 311 310 318 34
284 285 296 298 293 288 271 247 265 273 260 262 271 275 276 276 271 255 235 232 246 242 255 267 281 287 296 302 306 309 308 314 302 305 321 328 338 349 320 315 316 294 232
278 282 276 272 277 281 275 269 267 274 273 270 272 279 269 257 264 268 260 246 246 229 218 233 237 250 278 274 261 264 302 289 273 327 6 9 5 354 340 331 314 305 306
277 291 288 276 276 278 276 273 262 245 241 274 283 269 260 264 252 247 297 304 270 273 252 238 232 246 248 272 284 281 302 331 71 96 36 332 322 309 301 302 304 298 285